Time,TemperatureF,DewpointF,PressureIn,WindDirection,WindDirectionDegrees,WindSpeedMPH,WindSpeedGustMPH,Humidity,HourlyPrecipIn,Conditions,Clouds,dailyrainin,SoftwareType,DateUTC
2013-07-07 00:02:00,60.7,0.0,29.77,West,274,6.0,11.0,0,0.00,,,0.00,Weather View 32 v70,2013-07-07 07:02:00,
2013-07-07 00:07:00,61.5,0.0,29.77,SSW,195,5.0,11.0,0,0.00,,,0.00,Weather View 32 v70,2013-07-07 07:07:00,
2013-07-07 00:12:00,61.2,0.0,29.77,WSW,242,5.0,11.0,0,0.00,,,0.00,Weather View 32 v70,2013-07-07 07:12:00,
2013-07-07 00:17:00,61.0,0.0,29.77,West,274,5.0,11.0,0,0.00,,,0.00,Weather View 32 v70,2013-07-07 07:17:00,
2013-07-07 00:22:00,60.9,0.0,29.77,West,271,5.0,12.0,0,0.00,,,0.00,Weather View 32 v70,2013-07-07 07:22:00,
2013-07-07 00:27:00,60.4,0.0,29.78,West,280,4.0,12.0,0,0.00,,,0.00,Weather View 32 v70,2013-07-07 07:27:00,
2013-07-07 00:32:00,60.3,0.0,29.77,SW,232,7.0,12.0,0,0.00,,,0.00,Weather View 32 v70,2013-07-07 07:32:00,
2013-07-07 00:37:00,60.6,0.0,29.78,WSW,250,3.0,12.0,0,0.00,,,0.00,Weather View 32 v70,2013-07-07 07:37:00,
2013-07-07 00:42:00,60.4,0.0,29.78,WNW,302,5.0,12.0,0,0.00,,,0.00,Weather View 32 v70,2013-07-07 07:42:00,
2013-07-07 00:47:00,59.8,0.0,29.77,WSW,249,5.0,12.0,0,0.00,,,0.00,Weather View 32 v70,2013-07-07 07:47:00,
2013-07-07 00:52:00,60.2,0.0,29.77,WSW,243,3.0,12.0,0,0.00,,,0.00,Weather View 32 v70,2013-07-07 07:52:00,
2013-07-07 00:57:00,60.4,0.0,29.77,West,267,1.0,12.0,0,0.00,,,0.00,Weather View 32 v70,2013-07-07 07:57:00,
2013-07-07 01:02:00,60.3,0.0,29.77,WSW,252,8.0,12.0,0,0.00,,,0.00,Weather View 32 v70,2013-07-07 08:02:00,
2013-07-07 01:07:00,60.2,0.0,29.77,WSW,255,5.0,12.0,0,0.00,,,0.00,Weather View 32 v70,2013-07-07 08:07:00,
2013-07-07 01:12:00,59.7,0.0,29.77,West,278,4.0,12.0,0,0.00,,,0.00,Weather View 32 v70,2013-07-07 08:12:00,
2013-07-07 01:17:00,59.9,0.0,29.77,SW,232,1.0,12.0,0,0.00,,,0.00,Weather View 32 v70,2013-07-07 08:17:00,
2013-07-07 01:22:00,59.6,0.0,29.77,West,280,4.0,12.0,0,0.00,,,0.00,Weather View 32 v70,2013-07-07 08:22:00,
2013-07-07 01:27:00,59.6,0.0,29.77,SW,235,10.0,12.0,0,0.00,,,0.00,Weather View 32 v70,2013-07-07 08:27:00,
2013-07-07 01:32:00,59.5,0.0,29.78,West,267,5.0,11.0,0,0.00,,,0.00,Weather View 32 v70,2013-07-07 08:32:00,
2013-07-07 01:37:00,59.5,0.0,29.78,WSW,242,5.0,13.0,0,0.00,,,0.00,Weather View 32 v70,2013-07-07 08:37:00,
2013-07-07 01:42:00,59.4,0.0,29.78,WNW,284,6.0,13.0,0,0.00,,,0.00,Weather View 32 v70,2013-07-07 08:42:00,
2013-07-07 01:47:00,59.6,0.0,29.78,SW,233,2.0,13.0,0,0.00,,,0.00,Weather View 32 v70,2013-07-07 08:47:00,
2013-07-07 01:52:00,59.7,0.0,29.78,WSW,239,1.0,13.0,0,0.00,,,0.00,Weather View 32 v70,2013-07-07 08:52:00,
2013-07-07 01:57:00,59.5,0.0,29.78,NW,305,3.0,13.0,0,0.00,,,0.00,Weather View 32 v70,2013-07-07 08:57:00,
2013-07-07 02:02:00,59.6,0.0,29.78,WSW,257,5.0,13.0,0,0.00,,,0.00,Weather View 32 v70,2013-07-07 09:02:00,
2013-07-07 02:07:00,59.5,0.0,29.78,WSW,248,5.0,13.0,0,0.00,,,0.00,Weather View 32 v70,2013-07-07 09:07:00,
2013-07-07 02:12:00,59.8,0.0,29.78,WSW,239,10.0,13.0,0,0.00,,,0.00,Weather View 32 v70,2013-07-07 09:12:00,
2013-07-07 02:17:00,59.5,0.0,29.78,SW,225,3.0,13.0,0,0.00,,,0.00,Weather View 32 v70,2013-07-07 09:17:00,
2013-07-07 02:22:00,59.3,0.0,29.78,SW,233,7.0,13.0,0,0.00,,,0.00,Weather View 32 v70,2013-07-07 09:22:00,
2013-07-07 02:27:00,59.7,0.0,29.78,WNW,298,4.0,13.0,0,0.00,,,0.00,Weather View 32 v70,2013-07-07 09:27:00,
2013-07-07 02:32:00,59.2,0.0,29.77,WSW,239,4.0,13.0,0,0.00,,,0.00,Weather View 32 v70,2013-07-07 09:32:00,
2013-07-07 02:37:00,58.9,0.0,29.77,SSW,194,5.0,12.0,0,0.00,,,0.00,Weather View 32 v70,2013-07-07 09:37:00,
2013-07-07 02:42:00,59.1,0.0,29.78,SW,236,5.0,12.0,0,0.00,,,0.00,Weather View 32 v70,2013-07-07 09:42:00,
2013-07-07 02:47:00,59.0,0.0,29.78,West,273,5.0,12.0,0,0.00,,,0.00,Weather View 32 v70,2013-07-07 09:47:00,
2013-07-07 02:52:00,58.8,0.0,29.78,WSW,257,6.0,12.0,0,0.00,,,0.00,Weather View 32 v70,2013-07-07 09:52:00,
2013-07-07 02:57:00,58.5,0.0,29.78,WNW,294,3.0,12.0,0,0.00,,,0.00,Weather View 32 v70,2013-07-07 09:57:00,
2013-07-07 03:02:00,58.9,0.0,29.78,WSW,255,5.0,11.0,0,0.00,,,0.00,Weather View 32 v70,2013-07-07 10:02:00,
2013-07-07 03:07:00,58.6,0.0,29.78,WSW,253,5.0,11.0,0,0.00,,,0.00,Weather View 32 v70,2013-07-07 10:07:00,
2013-07-07 03:12:00,58.6,0.0,29.78,SSW,203,6.0,10.0,0,0.00,,,0.00,Weather View 32 v70,2013-07-07 10:12:00,
2013-07-07 03:17:00,58.5,0.0,29.78,WSW,248,6.0,12.0,0,0.00,,,0.00,Weather View 32 v70,2013-07-07 10:17:00,
2013-07-07 03:22:00,58.2,0.0,29.78,West,269,2.0,12.0,0,0.00,,,0.00,Weather View 32 v70,2013-07-07 10:22:00,
2013-07-07 03:27:00,58.6,0.0,29.78,WSW,252,3.0,13.0,0,0.00,,,0.00,Weather View 32 v70,2013-07-07 10:27:00,
2013-07-07 03:32:00,58.4,0.0,29.78,SW,221,3.0,13.0,0,0.00,,,0.00,Weather View 32 v70,2013-07-07 10:32:00,
2013-07-07 03:37:00,58.3,0.0,29.78,West,271,2.0,13.0,0,0.00,,,0.00,Weather View 32 v70,2013-07-07 10:37:00,
2013-07-07 03:42:00,58.7,0.0,29.78,SW,225,2.0,13.0,0,0.00,,,0.00,Weather View 32 v70,2013-07-07 10:42:00,
2013-07-07 03:47:00,58.8,0.0,29.78,West,260,6.0,13.0,0,0.00,,,0.00,Weather View 32 v70,2013-07-07 10:47:00,
2013-07-07 03:52:00,58.4,0.0,29.78,SW,221,2.0,13.0,0,0.00,,,0.00,Weather View 32 v70,2013-07-07 10:52:00,
2013-07-07 03:57:00,58.2,0.0,29.78,SSW,198,2.0,13.0,0,0.00,,,0.00,Weather View 32 v70,2013-07-07 10:57:00,
2013-07-07 04:02:00,58.4,0.0,29.79,SW,222,5.0,13.0,0,0.00,,,0.00,Weather View 32 v70,2013-07-07 11:02:00,
2013-07-07 04:07:00,58.4,0.0,29.79,WSW,252,6.0,13.0,0,0.00,,,0.00,Weather View 32 v70,2013-07-07 11:07:00,
2013-07-07 04:12:00,57.9,0.0,29.79,SW,232,6.0,13.0,0,0.00,,,0.00,Weather View 32 v70,2013-07-07 11:12:00,
2013-07-07 04:17:00,58.1,0.0,29.79,West,259,4.0,13.0,0,0.00,,,0.00,Weather View 32 v70,2013-07-07 11:17:00,
2013-07-07 04:22:00,57.8,0.0,29.79,West,264,4.0,13.0,0,0.00,,,0.00,Weather View 32 v70,2013-07-07 11:22:00,
2013-07-07 04:27:00,57.7,0.0,29.79,NW,319,3.0,12.0,0,0.00,,,0.00,Weather View 32 v70,2013-07-07 11:27:00,
2013-07-07 04:32:00,57.9,0.0,29.79,WSW,249,5.0,12.0,0,0.00,,,0.00,Weather View 32 v70,2013-07-07 11:32:00,
2013-07-07 04:37:00,58.0,0.0,29.79,WSW,246,3.0,12.0,0,0.00,,,0.00,Weather View 32 v70,2013-07-07 11:37:00,
2013-07-07 04:42:00,58.0,0.0,29.79,WSW,242,5.0,12.0,0,0.00,,,0.00,Weather View 32 v70,2013-07-07 11:42:00,
2013-07-07 04:47:00,57.7,0.0,29.80,WSW,249,3.0,12.0,0,0.00,,,0.00,Weather View 32 v70,2013-07-07 11:47:00,
2013-07-07 04:52:00,57.8,0.0,29.80,WSW,248,7.0,12.0,0,0.00,,,0.00,Weather View 32 v70,2013-07-07 11:52:00,
2013-07-07 04:57:00,57.5,0.0,29.80,South,184,4.0,12.0,0,0.00,,,0.00,Weather View 32 v70,2013-07-07 11:57:00,
2013-07-07 05:02:00,57.6,0.0,29.80,West,264,7.0,12.0,0,0.00,,,0.00,Weather View 32 v70,2013-07-07 12:02:00,
2013-07-07 05:07:00,57.6,0.0,29.80,SSW,211,3.0,10.0,0,0.00,,,0.00,Weather View 32 v70,2013-07-07 12:07:00,
2013-07-07 05:12:00,57.5,0.0,29.80,WSW,239,6.0,10.0,0,0.00,,,0.00,Weather View 32 v70,2013-07-07 12:12:00,
2013-07-07 05:17:00,57.1,0.0,29.80,SW,226,6.0,10.0,0,0.00,,,0.00,Weather View 32 v70,2013-07-07 12:17:00,
2013-07-07 05:22:00,57.2,0.0,29.80,WSW,256,2.0,10.0,0,0.00,,,0.00,Weather View 32 v70,2013-07-07 12:22:00,
2013-07-07 05:27:00,57.2,0.0,29.80,West,276,5.0,10.0,0,0.00,,,0.00,Weather View 32 v70,2013-07-07 12:27:00,
2013-07-07 05:32:00,57.1,0.0,29.80,West,269,5.0,10.0,0,0.00,,,0.00,Weather View 32 v70,2013-07-07 12:32:00,
2013-07-07 05:37:00,57.0,0.0,29.80,SW,235,5.0,10.0,0,0.00,,,0.00,Weather View 32 v70,2013-07-07 12:37:00,
2013-07-07 05:42:00,57.3,0.0,29.80,West,270,4.0,10.0,0,0.00,,,0.00,Weather View 32 v70,2013-07-07 12:42:00,
2013-07-07 05:47:00,57.4,0.0,29.80,WSW,242,5.0,10.0,0,0.00,,,0.00,Weather View 32 v70,2013-07-07 12:47:00,
2013-07-07 05:52:00,57.2,0.0,29.80,WSW,255,7.0,10.0,0,0.00,,,0.00,Weather View 32 v70,2013-07-07 12:52:00,
2013-07-07 05:57:00,57.3,0.0,29.80,SW,233,3.0,10.0,0,0.00,,,0.00,Weather View 32 v70,2013-07-07 12:57:00,
2013-07-07 06:02:00,57.2,0.0,29.81,SW,226,4.0,10.0,0,0.00,,,0.00,Weather View 32 v70,2013-07-07 13:02:00,
2013-07-07 06:07:00,57.0,0.0,29.81,WSW,242,4.0,10.0,0,0.00,,,0.00,Weather View 32 v70,2013-07-07 13:07:00,
2013-07-07 06:12:00,57.3,0.0,29.81,WNW,291,3.0,9.0,0,0.00,,,0.00,Weather View 32 v70,2013-07-07 13:12:00,
2013-07-07 06:17:00,57.3,0.0,29.81,WSW,239,5.0,9.0,0,0.00,,,0.00,Weather View 32 v70,2013-07-07 13:17:00,
2013-07-07 06:22:00,57.2,0.0,29.81,West,267,3.0,9.0,0,0.00,,,0.00,Weather View 32 v70,2013-07-07 13:22:00,
2013-07-07 06:27:00,57.0,0.0,29.81,WSW,257,3.0,9.0,0,0.00,,,0.00,Weather View 32 v70,2013-07-07 13:27:00,
2013-07-07 06:32:00,57.2,0.0,29.82,West,259,5.0,9.0,0,0.00,,,0.00,Weather View 32 v70,2013-07-07 13:32:00,
2013-07-07 06:37:00,57.3,0.0,29.82,WSW,243,2.0,9.0,0,0.00,,,0.00,Weather View 32 v70,2013-07-07 13:37:00,
2013-07-07 06:42:00,57.8,0.0,29.82,WSW,240,3.0,9.0,0,0.00,,,0.00,Weather View 32 v70,2013-07-07 13:42:00,
2013-07-07 06:47:00,57.7,0.0,29.82,SSW,210,4.0,9.0,0,0.00,,,0.00,Weather View 32 v70,2013-07-07 13:47:00,
2013-07-07 06:52:00,57.9,0.0,29.82,SW,235,4.0,9.0,0,0.00,,,0.00,Weather View 32 v70,2013-07-07 13:52:00,
2013-07-07 06:57:00,58.4,0.0,29.82,SW,232,2.0,9.0,0,0.00,,,0.00,Weather View 32 v70,2013-07-07 13:57:00,
2013-07-07 07:03:00,58.5,0.0,29.82,West,269,2.0,10.0,0,0.00,,,0.00,Weather View 32 v70,2013-07-07 14:03:00,
2013-07-07 07:08:00,58.8,0.0,29.83,SW,236,5.0,10.0,0,0.00,,,0.00,Weather View 32 v70,2013-07-07 14:08:00,
2013-07-07 07:12:00,58.7,0.0,29.83,West,264,4.0,10.0,0,0.00,,,0.00,Weather View 32 v70,2013-07-07 14:12:00,
2013-07-07 07:18:00,59.2,0.0,29.83,West,270,5.0,11.0,0,0.00,,,0.00,Weather View 32 v70,2013-07-07 14:18:00,
2013-07-07 07:23:00,59.4,0.0,29.83,WSW,242,8.0,11.0,0,0.00,,,0.00,Weather View 32 v70,2013-07-07 14:23:00,
2013-07-07 07:28:00,59.4,0.0,29.83,SW,232,4.0,11.0,0,0.00,,,0.00,Weather View 32 v70,2013-07-07 14:28:00,
2013-07-07 07:33:00,59.7,0.0,29.83,WSW,245,3.0,11.0,0,0.00,,,0.00,Weather View 32 v70,2013-07-07 14:33:00,
2013-07-07 07:38:00,59.8,0.0,29.83,SSW,212,6.0,11.0,0,0.00,,,0.00,Weather View 32 v70,2013-07-07 14:38:00,
2013-07-07 07:43:00,60.3,0.0,29.83,West,262,3.0,11.0,0,0.00,,,0.00,Weather View 32 v70,2013-07-07 14:43:00,
2013-07-07 07:48:00,60.5,0.0,29.83,West,266,3.0,11.0,0,0.00,,,0.00,Weather View 32 v70,2013-07-07 14:48:00,
2013-07-07 07:53:00,60.9,0.0,29.83,South,183,6.0,12.0,0,0.00,,,0.00,Weather View 32 v70,2013-07-07 14:53:00,
2013-07-07 07:58:00,61.2,0.0,29.83,WSW,238,6.0,12.0,0,0.00,,,0.00,Weather View 32 v70,2013-07-07 14:58:00,
2013-07-07 08:03:00,61.6,0.0,29.83,WSW,255,4.0,12.0,0,0.00,,,0.00,Weather View 32 v70,2013-07-07 15:03:00,
2013-07-07 08:08:00,62.0,0.0,29.83,WSW,250,2.0,12.0,0,0.00,,,0.00,Weather View 32 v70,2013-07-07 15:08:00,
2013-07-07 08:13:00,62.9,0.0,29.83,SSW,200,1.0,12.0,0,0.00,,,0.00,Weather View 32 v70,2013-07-07 15:13:00,
2013-07-07 08:18:00,62.9,0.0,29.83,WSW,238,4.0,12.0,0,0.00,,,0.00,Weather View 32 v70,2013-07-07 15:18:00,
2013-07-07 08:23:00,62.9,0.0,29.84,SSW,195,6.0,12.0,0,0.00,,,0.00,Weather View 32 v70,2013-07-07 15:23:00,
2013-07-07 08:28:00,63.3,0.0,29.84,South,187,5.0,12.0,0,0.00,,,0.00,Weather View 32 v70,2013-07-07 15:28:00,
2013-07-07 08:33:00,63.7,0.0,29.84,SW,225,0.0,12.0,0,0.00,,,0.00,Weather View 32 v70,2013-07-07 15:33:00,
2013-07-07 08:38:00,63.5,0.0,29.84,WSW,238,5.0,12.0,0,0.00,,,0.00,Weather View 32 v70,2013-07-07 15:38:00,
2013-07-07 08:43:00,64.2,0.0,29.84,West,267,5.0,12.0,0,0.00,,,0.00,Weather View 32 v70,2013-07-07 15:43:00,
2013-07-07 08:48:00,64.4,0.0,29.84,SSW,198,5.0,12.0,0,0.00,,,0.00,Weather View 32 v70,2013-07-07 15:48:00,
2013-07-07 08:53:00,63.9,0.0,29.84,West,260,6.0,10.0,0,0.00,,,0.00,Weather View 32 v70,2013-07-07 15:53:00,
2013-07-07 08:58:00,64.9,0.0,29.84,SW,236,4.0,10.0,0,0.00,,,0.00,Weather View 32 v70,2013-07-07 15:58:00,
2013-07-07 09:03:00,65.1,0.0,29.84,SSE,153,2.0,10.0,0,0.00,,,0.00,Weather View 32 v70,2013-07-07 16:03:00,
2013-07-07 09:08:00,64.9,0.0,29.85,SSW,201,4.0,10.0,0,0.00,,,0.00,Weather View 32 v70,2013-07-07 16:08:00,
2013-07-07 09:13:00,65.1,0.0,29.85,SW,214,5.0,10.0,0,0.00,,,0.00,Weather View 32 v70,2013-07-07 16:13:00,
2013-07-07 09:18:00,66.1,0.0,29.85,SSE,155,3.0,10.0,0,0.00,,,0.00,Weather View 32 v70,2013-07-07 16:18:00,
2013-07-07 09:23:00,66.8,0.0,29.85,SW,236,5.0,10.0,0,0.00,,,0.00,Weather View 32 v70,2013-07-07 16:23:00,
2013-07-07 09:28:00,67.2,0.0,29.85,WSW,246,3.0,10.0,0,0.00,,,0.00,Weather View 32 v70,2013-07-07 16:28:00,
2013-07-07 09:33:00,67.7,0.0,29.84,SW,229,4.0,10.0,0,0.00,,,0.00,Weather View 32 v70,2013-07-07 16:33:00,
2013-07-07 09:38:00,67.4,0.0,29.84,South,179,3.0,10.0,0,0.00,,,0.00,Weather View 32 v70,2013-07-07 16:38:00,
2013-07-07 09:43:00,68.5,0.0,29.84,South,179,3.0,10.0,0,0.00,,,0.00,Weather View 32 v70,2013-07-07 16:43:00,
2013-07-07 09:48:00,68.0,0.0,29.84,SSW,200,8.0,10.0,0,0.00,,,0.00,Weather View 32 v70,2013-07-07 16:48:00,
2013-07-07 09:53:00,68.5,0.0,29.84,SSW,200,1.0,10.0,0,0.00,,,0.00,Weather View 32 v70,2013-07-07 16:53:00,
2013-07-07 09:58:00,69.4,0.0,29.84,SW,222,2.0,10.0,0,0.00,,,0.00,Weather View 32 v70,2013-07-07 16:58:00,
2013-07-07 10:03:00,69.9,0.0,29.84,SW,217,0.0,10.0,0,0.00,,,0.00,Weather View 32 v70,2013-07-07 17:03:00,
2013-07-07 10:08:00,69.2,0.0,29.84,WSW,238,5.0,10.0,0,0.00,,,0.00,Weather View 32 v70,2013-07-07 17:08:00,
2013-07-07 10:13:00,70.0,0.0,29.84,South,187,5.0,10.0,0,0.00,,,0.00,Weather View 32 v70,2013-07-07 17:13:00,
2013-07-07 10:18:00,70.6,0.0,29.84,SW,224,3.0,10.0,0,0.00,,,0.00,Weather View 32 v70,2013-07-07 17:18:00,
2013-07-07 10:23:00,70.8,0.0,29.84,SSW,212,5.0,10.0,0,0.00,,,0.00,Weather View 32 v70,2013-07-07 17:23:00,
2013-07-07 10:28:00,71.5,0.0,29.84,SW,224,4.0,10.0,0,0.00,,,0.00,Weather View 32 v70,2013-07-07 17:28:00,
2013-07-07 10:33:00,71.4,0.0,29.84,South,184,3.0,10.0,0,0.00,,,0.00,Weather View 32 v70,2013-07-07 17:33:00,
2013-07-07 10:38:00,71.6,0.0,29.84,South,184,2.0,10.0,0,0.00,,,0.00,Weather View 32 v70,2013-07-07 17:38:00,
2013-07-07 10:43:00,72.8,0.0,29.84,South,177,3.0,10.0,0,0.00,,,0.00,Weather View 32 v70,2013-07-07 17:43:00,
2013-07-07 10:48:00,73.1,0.0,29.84,SSE,166,8.0,10.0,0,0.00,,,0.00,Weather View 32 v70,2013-07-07 17:48:00,
2013-07-07 10:53:00,73.1,0.0,29.84,SSE,165,4.0,10.0,0,0.00,,,0.00,Weather View 32 v70,2013-07-07 17:53:00,
2013-07-07 10:58:00,73.4,0.0,29.84,SE,145,5.0,10.0,0,0.00,,,0.00,Weather View 32 v70,2013-07-07 17:58:00,
2013-07-07 11:03:00,73.7,0.0,29.84,South,169,5.0,10.0,0,0.00,,,0.00,Weather View 32 v70,2013-07-07 18:03:00,
2013-07-07 11:08:00,74.1,0.0,29.84,SE,135,5.0,10.0,0,0.00,,,0.00,Weather View 32 v70,2013-07-07 18:08:00,
2013-07-07 11:13:00,75.7,0.0,29.84,South,186,4.0,10.0,0,0.00,,,0.00,Weather View 32 v70,2013-07-07 18:13:00,
2013-07-07 11:18:00,75.4,0.0,29.84,South,179,3.0,10.0,0,0.00,,,0.00,Weather View 32 v70,2013-07-07 18:18:00,
2013-07-07 11:23:00,75.6,0.0,29.84,SW,222,3.0,10.0,0,0.00,,,0.00,Weather View 32 v70,2013-07-07 18:23:00,
2013-07-07 11:28:00,76.1,0.0,29.84,ESE,117,0.0,10.0,0,0.00,,,0.00,Weather View 32 v70,2013-07-07 18:28:00,
2013-07-07 11:33:00,77.0,0.0,29.84,SSW,194,8.0,10.0,0,0.00,,,0.00,Weather View 32 v70,2013-07-07 18:33:00,
2013-07-07 11:38:00,77.1,0.0,29.84,SSW,211,4.0,10.0,0,0.00,,,0.00,Weather View 32 v70,2013-07-07 18:38:00,
2013-07-07 11:43:00,78.0,0.0,29.84,SW,214,3.0,10.0,0,0.00,,,0.00,Weather View 32 v70,2013-07-07 18:43:00,
2013-07-07 11:48:00,78.9,0.0,29.84,WSW,248,3.0,10.0,0,0.00,,,0.00,Weather View 32 v70,2013-07-07 18:48:00,
2013-07-07 11:53:00,78.8,0.0,29.83,SSW,210,3.0,10.0,0,0.00,,,0.00,Weather View 32 v70,2013-07-07 18:53:00,
2013-07-07 11:58:00,79.7,0.0,29.83,SSW,198,3.0,10.0,0,0.00,,,0.00,Weather View 32 v70,2013-07-07 18:58:00,
2013-07-07 12:03:00,79.3,0.0,29.83,SSE,163,1.0,10.0,0,0.00,,,0.00,Weather View 32 v70,2013-07-07 19:03:00,
2013-07-07 12:08:00,80.6,0.0,29.83,SSE,159,4.0,10.0,0,0.00,,,0.00,Weather View 32 v70,2013-07-07 19:08:00,
2013-07-07 12:13:00,80.5,0.0,29.83,West,263,4.0,10.0,0,0.00,,,0.00,Weather View 32 v70,2013-07-07 19:13:00,
2013-07-07 12:18:00,82.4,0.0,29.83,West,259,1.0,10.0,0,0.00,,,0.00,Weather View 32 v70,2013-07-07 19:18:00,
2013-07-07 12:23:00,82.5,0.0,29.83,SW,222,7.0,10.0,0,0.00,,,0.00,Weather View 32 v70,2013-07-07 19:23:00,
2013-07-07 12:28:00,81.6,0.0,29.83,SSW,212,4.0,11.0,0,0.00,,,0.00,Weather View 32 v70,2013-07-07 19:28:00,
2013-07-07 12:33:00,82.8,0.0,29.83,WSW,253,5.0,13.0,0,0.00,,,0.00,Weather View 32 v70,2013-07-07 19:33:00,
2013-07-07 12:38:00,82.8,0.0,29.83,SW,217,3.0,13.0,0,0.00,,,0.00,Weather View 32 v70,2013-07-07 19:38:00,
2013-07-07 12:43:00,83.4,0.0,29.83,SSW,204,4.0,13.0,0,0.00,,,0.00,Weather View 32 v70,2013-07-07 19:43:00,
2013-07-07 12:48:00,83.8,0.0,29.82,SE,139,2.0,13.0,0,0.00,,,0.00,Weather View 32 v70,2013-07-07 19:48:00,
2013-07-07 12:53:00,84.2,0.0,29.82,SSE,163,8.0,13.0,0,0.00,,,0.00,Weather View 32 v70,2013-07-07 19:53:00,
2013-07-07 12:58:00,84.0,0.0,29.82,SSW,200,5.0,13.0,0,0.00,,,0.00,Weather View 32 v70,2013-07-07 19:58:00,
2013-07-07 13:03:00,85.0,0.0,29.82,WSW,255,7.0,13.0,0,0.00,,,0.00,Weather View 32 v70,2013-07-07 20:03:00,
2013-07-07 13:08:00,84.3,0.0,29.82,SW,231,3.0,13.0,0,0.00,,,0.00,Weather View 32 v70,2013-07-07 20:08:00,
2013-07-07 13:13:00,83.6,0.0,29.82,South,177,8.0,13.0,0,0.00,,,0.00,Weather View 32 v70,2013-07-07 20:13:00,
2013-07-07 13:18:00,84.1,0.0,29.82,West,267,4.0,13.0,0,0.00,,,0.00,Weather View 32 v70,2013-07-07 20:18:00,
2013-07-07 13:23:00,84.5,0.0,29.82,SSW,195,5.0,13.0,0,0.00,,,0.00,Weather View 32 v70,2013-07-07 20:23:00,
2013-07-07 13:28:00,86.3,0.0,29.82,South,169,3.0,13.0,0,0.00,,,0.00,Weather View 32 v70,2013-07-07 20:28:00,
2013-07-07 13:33:00,86.3,0.0,29.81,SSW,210,3.0,13.0,0,0.00,,,0.00,Weather View 32 v70,2013-07-07 20:33:00,
2013-07-07 13:38:00,86.2,0.0,29.81,WSW,238,6.0,13.0,0,0.00,,,0.00,Weather View 32 v70,2013-07-07 20:38:00,
2013-07-07 13:43:00,86.5,0.0,29.81,SW,221,8.0,13.0,0,0.00,,,0.00,Weather View 32 v70,2013-07-07 20:43:00,
2013-07-07 13:48:00,86.9,0.0,29.81,SW,217,3.0,13.0,0,0.00,,,0.00,Weather View 32 v70,2013-07-07 20:48:00,
2013-07-07 13:53:00,85.9,0.0,29.81,SW,235,8.0,13.0,0,0.00,,,0.00,Weather View 32 v70,2013-07-07 20:53:00,
2013-07-07 13:58:00,86.8,0.0,29.81,SSE,153,5.0,13.0,0,0.00,,,0.00,Weather View 32 v70,2013-07-07 20:58:00,
2013-07-07 14:03:00,88.1,0.0,29.81,SW,229,5.0,13.0,0,0.00,,,0.00,Weather View 32 v70,2013-07-07 21:03:00,
2013-07-07 14:08:00,88.4,0.0,29.80,SSW,201,10.0,13.0,0,0.00,,,0.00,Weather View 32 v70,2013-07-07 21:08:00,
2013-07-07 14:13:00,88.5,0.0,29.80,SSW,197,4.0,13.0,0,0.00,,,0.00,Weather View 32 v70,2013-07-07 21:13:00,
2013-07-07 14:18:00,89.3,0.0,29.80,SW,222,8.0,13.0,0,0.00,,,0.00,Weather View 32 v70,2013-07-07 21:18:00,
2013-07-07 14:23:00,89.2,0.0,29.80,SSW,205,4.0,13.0,0,0.00,,,0.00,Weather View 32 v70,2013-07-07 21:23:00,
2013-07-07 14:29:00,89.3,0.0,29.80,SW,219,5.0,14.0,0,0.00,,,0.00,Weather View 32 v70,2013-07-07 21:29:00,
2013-07-07 14:34:00,89.7,0.0,29.80,SW,224,4.0,14.0,0,0.00,,,0.00,Weather View 32 v70,2013-07-07 21:34:00,
2013-07-07 14:39:00,90.4,0.0,29.80,SSW,208,3.0,14.0,0,0.00,,,0.00,Weather View 32 v70,2013-07-07 21:39:00,
2013-07-07 14:44:00,89.9,0.0,29.80,SSW,211,9.0,14.0,0,0.00,,,0.00,Weather View 32 v70,2013-07-07 21:44:00,
2013-07-07 14:49:00,90.3,0.0,29.80,SW,214,8.0,14.0,0,0.00,,,0.00,Weather View 32 v70,2013-07-07 21:49:00,
2013-07-07 14:54:00,90.1,0.0,29.80,SW,226,5.0,14.0,0,0.00,,,0.00,Weather View 32 v70,2013-07-07 21:54:00,
2013-07-07 14:59:00,90.7,0.0,29.80,South,177,10.0,14.0,0,0.00,,,0.00,Weather View 32 v70,2013-07-07 21:59:00,
2013-07-07 15:04:00,89.0,0.0,29.80,West,260,10.0,14.0,0,0.00,,,0.00,Weather View 32 v70,2013-07-07 22:04:00,
2013-07-07 15:09:00,89.9,0.0,29.80,WSW,253,11.0,14.0,0,0.00,,,0.00,Weather View 32 v70,2013-07-07 22:09:00,
2013-07-07 15:14:00,90.6,0.0,29.79,WSW,242,8.0,14.0,0,0.00,,,0.00,Weather View 32 v70,2013-07-07 22:14:00,
2013-07-07 15:19:00,90.9,0.0,29.80,WSW,245,8.0,15.0,0,0.00,,,0.00,Weather View 32 v70,2013-07-07 22:19:00,
2013-07-07 15:24:00,91.4,0.0,29.79,SSW,197,6.0,15.0,0,0.00,,,0.00,Weather View 32 v70,2013-07-07 22:24:00,
2013-07-07 15:29:00,91.7,0.0,29.79,WSW,240,6.0,15.0,0,0.00,,,0.00,Weather View 32 v70,2013-07-07 22:29:00,
2013-07-07 15:34:00,91.4,0.0,29.79,West,280,6.0,15.0,0,0.00,,,0.00,Weather View 32 v70,2013-07-07 22:34:00,
2013-07-07 15:39:00,91.3,0.0,29.79,WSW,253,4.0,15.0,0,0.00,,,0.00,Weather View 32 v70,2013-07-07 22:39:00,
2013-07-07 15:44:00,91.4,0.0,29.79,SSE,163,4.0,15.0,0,0.00,,,0.00,Weather View 32 v70,2013-07-07 22:44:00,
2013-07-07 15:49:00,91.1,0.0,29.78,West,262,6.0,15.0,0,0.00,,,0.00,Weather View 32 v70,2013-07-07 22:49:00,
2013-07-07 15:54:00,91.1,0.0,29.78,SW,224,10.0,15.0,0,0.00,,,0.00,Weather View 32 v70,2013-07-07 22:54:00,
2013-07-07 15:59:00,91.4,0.0,29.78,WSW,239,5.0,15.0,0,0.00,,,0.00,Weather View 32 v70,2013-07-07 22:59:00,
2013-07-07 16:04:00,91.6,0.0,29.78,SW,218,6.0,15.0,0,0.00,,,0.00,Weather View 32 v70,2013-07-07 23:04:00,
2013-07-07 16:09:00,91.4,0.0,29.78,SW,218,6.0,15.0,0,0.00,,,0.00,Weather View 32 v70,2013-07-07 23:09:00,
2013-07-07 16:14:00,91.7,0.0,29.77,West,270,8.0,15.0,0,0.00,,,0.00,Weather View 32 v70,2013-07-07 23:14:00,
2013-07-07 16:19:00,90.7,0.0,29.77,West,259,6.0,15.0,0,0.00,,,0.00,Weather View 32 v70,2013-07-07 23:19:00,
2013-07-07 16:24:00,90.9,0.0,29.77,SW,233,5.0,14.0,0,0.00,,,0.00,Weather View 32 v70,2013-07-07 23:24:00,
2013-07-07 16:29:00,90.9,0.0,29.77,WSW,257,7.0,14.0,0,0.00,,,0.00,Weather View 32 v70,2013-07-07 23:29:00,
2013-07-07 16:34:00,90.0,0.0,29.77,SW,226,8.0,14.0,0,0.00,,,0.00,Weather View 32 v70,2013-07-07 23:34:00,
2013-07-07 16:39:00,89.7,0.0,29.77,South,174,3.0,14.0,0,0.00,,,0.00,Weather View 32 v70,2013-07-07 23:39:00,
2013-07-07 16:44:00,88.4,0.0,29.77,South,172,5.0,14.0,0,0.00,,,0.00,Weather View 32 v70,2013-07-07 23:44:00,
2013-07-07 16:49:00,88.9,0.0,29.77,South,181,5.0,14.0,0,0.00,,,0.00,Weather View 32 v70,2013-07-07 23:49:00,
2013-07-07 16:54:00,88.1,0.0,29.77,SSW,208,3.0,14.0,0,0.00,,,0.00,Weather View 32 v70,2013-07-07 23:54:00,
2013-07-07 16:59:00,87.1,0.0,29.76,SSE,165,7.0,14.0,0,0.00,,,0.00,Weather View 32 v70,2013-07-07 23:59:00,
2013-07-07 17:04:00,86.4,0.0,29.76,SW,235,5.0,13.0,0,0.00,,,0.00,Weather View 32 v70,2013-07-08 00:04:00,
2013-07-07 17:09:00,86.9,0.0,29.76,SW,229,6.0,13.0,0,0.00,,,0.00,Weather View 32 v70,2013-07-08 00:09:00,
2013-07-07 17:14:00,87.2,0.0,29.76,WSW,256,4.0,13.0,0,0.00,,,0.00,Weather View 32 v70,2013-07-08 00:14:00,
2013-07-07 17:19:00,86.0,0.0,29.76,SW,235,6.0,12.0,0,0.00,,,0.00,Weather View 32 v70,2013-07-08 00:19:00,
2013-07-07 17:24:00,86.6,0.0,29.76,SW,235,3.0,12.0,0,0.00,,,0.00,Weather View 32 v70,2013-07-08 00:24:00,
2013-07-07 17:29:00,86.2,0.0,29.76,WSW,248,9.0,12.0,0,0.00,,,0.00,Weather View 32 v70,2013-07-08 00:29:00,
2013-07-07 17:34:00,86.4,0.0,29.76,WSW,249,5.0,12.0,0,0.00,,,0.00,Weather View 32 v70,2013-07-08 00:34:00,
2013-07-07 17:39:00,85.9,0.0,29.76,SSE,162,2.0,12.0,0,0.00,,,0.00,Weather View 32 v70,2013-07-08 00:39:00,
2013-07-07 17:44:00,85.5,0.0,29.76,SW,228,6.0,12.0,0,0.00,,,0.00,Weather View 32 v70,2013-07-08 00:44:00,
2013-07-07 17:49:00,85.5,0.0,29.76,SW,235,7.0,12.0,0,0.00,,,0.00,Weather View 32 v70,2013-07-08 00:49:00,
2013-07-07 17:54:00,85.6,0.0,29.75,SW,214,7.0,12.0,0,0.00,,,0.00,Weather View 32 v70,2013-07-08 00:54:00,
2013-07-07 17:59:00,85.9,0.0,29.76,SSW,200,6.0,12.0,0,0.00,,,0.00,Weather View 32 v70,2013-07-08 00:59:00,
2013-07-07 18:04:00,85.9,0.0,29.76,WSW,250,5.0,12.0,0,0.00,,,0.00,Weather View 32 v70,2013-07-08 01:04:00,
2013-07-07 18:09:00,85.8,0.0,29.75,SSW,194,4.0,12.0,0,0.00,,,0.00,Weather View 32 v70,2013-07-08 01:09:00,
2013-07-07 18:14:00,85.5,0.0,29.75,SW,231,5.0,12.0,0,0.00,,,0.00,Weather View 32 v70,2013-07-08 01:14:00,
2013-07-07 18:19:00,85.5,0.0,29.75,SSW,208,7.0,12.0,0,0.00,,,0.00,Weather View 32 v70,2013-07-08 01:19:00,
2013-07-07 18:24:00,85.2,0.0,29.75,SSW,198,4.0,12.0,0,0.00,,,0.00,Weather View 32 v70,2013-07-08 01:24:00,
2013-07-07 18:29:00,84.8,0.0,29.75,WSW,242,3.0,12.0,0,0.00,,,0.00,Weather View 32 v70,2013-07-08 01:29:00,
2013-07-07 18:34:00,84.5,0.0,29.75,WSW,243,2.0,12.0,0,0.00,,,0.00,Weather View 32 v70,2013-07-08 01:34:00,
2013-07-07 18:39:00,83.5,0.0,29.76,WSW,253,9.0,11.0,0,0.00,,,0.00,Weather View 32 v70,2013-07-08 01:39:00,
2013-07-07 18:44:00,83.6,0.0,29.76,SW,233,5.0,11.0,0,0.00,,,0.00,Weather View 32 v70,2013-07-08 01:44:00,
2013-07-07 18:45:00,83.6,0.0,29.76,SW,228,6.0,11.0,0,0.00,,,0.00,Weather View 32 v70,2013-07-08 01:45:00,
2013-07-07 18:50:00,81.9,0.0,29.76,WSW,252,7.0,11.0,0,0.00,,,0.00,Weather View 32 v70,2013-07-08 01:50:00,
2013-07-07 18:55:00,81.9,0.0,29.76,West,274,4.0,11.0,0,0.00,,,0.00,Weather View 32 v70,2013-07-08 01:55:00,
2013-07-07 19:00:00,81.4,0.0,29.76,SW,229,7.0,12.0,0,0.00,,,0.00,Weather View 32 v70,2013-07-08 02:00:00,
2013-07-07 19:05:00,80.3,0.0,29.76,SSW,205,4.0,12.0,0,0.00,,,0.00,Weather View 32 v70,2013-07-08 02:05:00,
2013-07-07 19:10:00,80.2,0.0,29.76,SSE,166,1.0,12.0,0,0.00,,,0.00,Weather View 32 v70,2013-07-08 02:10:00,
2013-07-07 19:15:00,79.8,0.0,29.76,SW,235,4.0,12.0,0,0.00,,,0.00,Weather View 32 v70,2013-07-08 02:15:00,
2013-07-07 19:20:00,80.1,0.0,29.76,WSW,240,7.0,12.0,0,0.00,,,0.00,Weather View 32 v70,2013-07-08 02:20:00,
2013-07-07 19:25:00,78.7,0.0,29.76,WSW,238,1.0,12.0,0,0.00,,,0.00,Weather View 32 v70,2013-07-08 02:25:00,
2013-07-07 19:30:00,78.3,0.0,29.77,SW,221,7.0,12.0,0,0.00,,,0.00,Weather View 32 v70,2013-07-08 02:30:00,
2013-07-07 19:35:00,78.4,0.0,29.77,West,264,4.0,12.0,0,0.00,,,0.00,Weather View 32 v70,2013-07-08 02:35:00,
2013-07-07 19:40:00,77.8,0.0,29.77,West,276,7.0,12.0,0,0.00,,,0.00,Weather View 32 v70,2013-07-08 02:40:00,
2013-07-07 19:45:00,76.9,0.0,29.77,SSW,203,4.0,12.0,0,0.00,,,0.00,Weather View 32 v70,2013-07-08 02:45:00,
2013-07-07 19:50:00,76.2,0.0,29.77,SSW,208,5.0,13.0,0,0.00,,,0.00,Weather View 32 v70,2013-07-08 02:50:00,
2013-07-07 19:55:00,75.2,0.0,29.77,West,260,9.0,16.0,0,0.00,,,0.00,Weather View 32 v70,2013-07-08 02:55:00,
2013-07-07 20:00:00,75.3,0.0,29.77,WSW,255,5.0,16.0,0,0.00,,,0.00,Weather View 32 v70,2013-07-08 03:00:00,
2013-07-07 20:05:00,75.2,0.0,29.77,WSW,253,7.0,16.0,0,0.00,,,0.00,Weather View 32 v70,2013-07-08 03:05:00,
2013-07-07 20:10:00,75.1,0.0,29.77,WSW,253,5.0,16.0,0,0.00,,,0.00,Weather View 32 v70,2013-07-08 03:10:00,
2013-07-07 20:15:00,74.6,0.0,29.77,West,267,4.0,16.0,0,0.00,,,0.00,Weather View 32 v70,2013-07-08 03:15:00,
2013-07-07 20:20:00,74.9,0.0,29.78,SW,236,6.0,16.0,0,0.00,,,0.00,Weather View 32 v70,2013-07-08 03:20:00,
2013-07-07 20:25:00,74.0,0.0,29.78,WSW,250,2.0,16.0,0,0.00,,,0.00,Weather View 32 v70,2013-07-08 03:25:00,
2013-07-07 20:30:00,73.9,0.0,29.78,South,172,0.0,16.0,0,0.00,,,0.00,Weather View 32 v70,2013-07-08 03:30:00,
2013-07-07 20:35:00,73.9,0.0,29.78,West,260,1.0,16.0,0,0.00,,,0.00,Weather View 32 v70,2013-07-08 03:35:00,
2013-07-07 20:40:00,73.3,0.0,29.78,WSW,245,5.0,16.0,0,0.00,,,0.00,Weather View 32 v70,2013-07-08 03:40:00,
2013-07-07 20:45:00,72.4,0.0,29.78,WSW,252,3.0,16.0,0,0.00,,,0.00,Weather View 32 v70,2013-07-08 03:45:00,
2013-07-07 20:50:00,72.3,0.0,29.78,West,263,8.0,16.0,0,0.00,,,0.00,Weather View 32 v70,2013-07-08 03:50:00,
2013-07-07 20:55:00,71.5,0.0,29.78,West,280,5.0,12.0,0,0.00,,,0.00,Weather View 32 v70,2013-07-08 03:55:00,
2013-07-07 21:00:00,71.2,0.0,29.79,SW,222,4.0,11.0,0,0.00,,,0.00,Weather View 32 v70,2013-07-08 04:00:00,
2013-07-07 21:01:00,71.3,0.0,29.79,West,267,6.0,11.0,0,0.00,,,0.00,Weather View 32 v70,2013-07-08 04:01:00,
2013-07-07 21:02:00,70.9,0.0,29.79,SW,215,8.0,11.0,0,0.00,,,0.00,Weather View 32 v70,2013-07-08 04:02:00,
2013-07-07 21:07:00,70.3,0.0,29.79,WSW,249,6.0,12.0,0,0.00,,,0.00,Weather View 32 v70,2013-07-08 04:07:00,
2013-07-07 21:12:00,69.7,0.0,29.79,WNW,284,5.0,12.0,0,0.00,,,0.00,Weather View 32 v70,2013-07-08 04:12:00,
2013-07-07 21:17:00,69.4,0.0,29.79,WSW,253,4.0,12.0,0,0.00,,,0.00,Weather View 32 v70,2013-07-08 04:17:00,
2013-07-07 21:22:00,69.1,0.0,29.80,West,277,5.0,12.0,0,0.00,,,0.00,Weather View 32 v70,2013-07-08 04:22:00,
2013-07-07 21:27:00,69.5,0.0,29.80,WNW,302,3.0,12.0,0,0.00,,,0.00,Weather View 32 v70,2013-07-08 04:27:00,
2013-07-07 21:32:00,69.4,0.0,29.80,West,263,3.0,12.0,0,0.00,,,0.00,Weather View 32 v70,2013-07-08 04:32:00,
2013-07-07 21:37:00,69.3,0.0,29.80,West,277,6.0,12.0,0,0.00,,,0.00,Weather View 32 v70,2013-07-08 04:37:00,
2013-07-07 21:42:00,69.0,0.0,29.80,WNW,284,6.0,12.0,0,0.00,,,0.00,Weather View 32 v70,2013-07-08 04:42:00,
2013-07-07 21:47:00,69.5,0.0,29.81,SW,224,3.0,12.0,0,0.00,,,0.00,Weather View 32 v70,2013-07-08 04:47:00,
2013-07-07 21:52:00,69.5,0.0,29.81,West,276,3.0,12.0,0,0.00,,,0.00,Weather View 32 v70,2013-07-08 04:52:00,
2013-07-07 21:57:00,69.3,0.0,29.81,WNW,285,3.0,12.0,0,0.00,,,0.00,Weather View 32 v70,2013-07-08 04:57:00,
2013-07-07 22:02:00,69.1,0.0,29.82,SSE,160,0.0,12.0,0,0.00,,,0.00,Weather View 32 v70,2013-07-08 05:02:00,
2013-07-07 22:07:00,68.4,0.0,29.82,West,262,2.0,11.0,0,0.00,,,0.00,Weather View 32 v70,2013-07-08 05:07:00,
2013-07-07 22:12:00,68.1,0.0,29.82,SW,231,5.0,11.0,0,0.00,,,0.00,Weather View 32 v70,2013-07-08 05:12:00,
2013-07-07 22:17:00,67.3,0.0,29.82,SSW,204,5.0,11.0,0,0.00,,,0.00,Weather View 32 v70,2013-07-08 05:17:00,
2013-07-07 22:22:00,66.8,0.0,29.82,SW,231,4.0,11.0,0,0.00,,,0.00,Weather View 32 v70,2013-07-08 05:22:00,
2013-07-07 22:27:00,66.3,0.0,29.82,SW,228,3.0,11.0,0,0.00,,,0.00,Weather View 32 v70,2013-07-08 05:27:00,
2013-07-07 22:33:00,66.7,0.0,29.82,WSW,238,3.0,11.0,0,0.00,,,0.00,Weather View 32 v70,2013-07-08 05:33:00,
2013-07-07 22:38:00,66.0,0.0,29.82,WSW,246,6.0,11.0,0,0.00,,,0.00,Weather View 32 v70,2013-07-08 05:38:00,
2013-07-07 22:43:00,66.2,0.0,29.82,SSE,156,4.0,11.0,0,0.00,,,0.00,Weather View 32 v70,2013-07-08 05:43:00,
2013-07-07 22:48:00,66.1,0.0,29.82,SW,235,2.0,11.0,0,0.00,,,0.00,Weather View 32 v70,2013-07-08 05:48:00,
2013-07-07 22:53:00,65.3,0.0,29.82,SW,219,3.0,11.0,0,0.00,,,0.00,Weather View 32 v70,2013-07-08 05:53:00,
2013-07-07 22:58:00,65.3,0.0,29.83,West,274,3.0,11.0,0,0.00,,,0.00,Weather View 32 v70,2013-07-08 05:58:00,
2013-07-07 23:03:00,64.9,0.0,29.83,WSW,245,7.0,11.0,0,0.00,,,0.00,Weather View 32 v70,2013-07-08 06:03:00,
2013-07-07 23:08:00,64.7,0.0,29.83,SW,225,5.0,13.0,0,0.00,,,0.00,Weather View 32 v70,2013-07-08 06:08:00,
2013-07-07 23:13:00,65.2,0.0,29.83,SW,229,5.0,13.0,0,0.00,,,0.00,Weather View 32 v70,2013-07-08 06:13:00,
2013-07-07 23:18:00,64.5,0.0,29.83,West,278,4.0,13.0,0,0.00,,,0.00,Weather View 32 v70,2013-07-08 06:18:00,
2013-07-07 23:23:00,63.8,0.0,29.83,WSW,248,7.0,13.0,0,0.00,,,0.00,Weather View 32 v70,2013-07-08 06:23:00,
2013-07-07 23:28:00,64.0,0.0,29.83,WSW,238,5.0,13.0,0,0.00,,,0.00,Weather View 32 v70,2013-07-08 06:28:00,
2013-07-07 23:33:00,64.1,0.0,29.83,WSW,248,5.0,13.0,0,0.00,,,0.00,Weather View 32 v70,2013-07-08 06:33:00,
2013-07-07 23:38:00,63.6,0.0,29.83,WSW,252,5.0,13.0,0,0.00,,,0.00,Weather View 32 v70,2013-07-08 06:38:00,
2013-07-07 23:43:00,63.4,0.0,29.83,WSW,240,4.0,13.0,0,0.00,,,0.00,Weather View 32 v70,2013-07-08 06:43:00,
2013-07-07 23:48:00,63.3,0.0,29.83,WNW,290,4.0,13.0,0,0.00,,,0.00,Weather View 32 v70,2013-07-08 06:48:00,
2013-07-07 23:53:00,63.0,0.0,29.83,SSW,204,6.0,13.0,0,0.00,,,0.00,Weather View 32 v70,2013-07-08 06:53:00,
2013-07-07 23:58:00,63.0,0.0,29.83,West,280,3.0,14.0,0,0.00,,,0.00,Weather View 32 v70,2013-07-08 06:58:00,